Time,TemperatureF,DewpointF,PressureIn,WindDirection,WindDirectionDegrees,WindSpeedMPH,WindSpeedGustMPH,Humidity,HourlyPrecipIn,Conditions,Clouds,dailyrainin,SoftwareType,DateUTC
2013-02-15 00:02:00,29.0,20.0,30.36,North,356,4.0,11.0,70,0.00,,,0.00,,2013-02-15 06:02:00,
2013-02-15 00:11:00,28.0,20.0,30.36,NW,319,4.0,10.0,72,0.00,,,0.00,,2013-02-15 06:11:00,
2013-02-15 00:21:00,28.0,20.0,30.36,NW,319,4.0,10.0,72,0.00,,,0.00,,2013-02-15 06:21:00,
2013-02-15 00:31:00,28.0,20.0,30.36,North,350,4.0,10.0,73,0.00,,,0.00,,2013-02-15 06:31:00,
2013-02-15 00:42:00,28.0,20.0,30.36,North,350,4.0,10.0,73,0.00,,,0.00,,2013-02-15 06:42:00,
2013-02-15 00:52:00,27.0,20.0,30.37,NNW,334,6.0,11.0,75,0.00,,,0.00,,2013-02-15 06:52:00,
2013-02-15 01:01:00,27.0,20.0,30.37,NNW,328,5.0,13.0,75,0.00,,,0.00,,2013-02-15 07:01:00,
2013-02-15 01:11:00,27.0,20.0,30.37,NNW,328,5.0,13.0,75,0.00,,,0.00,,2013-02-15 07:11:00,
2013-02-15 01:21:00,27.0,20.0,30.38,NW,319,5.0,14.0,76,0.00,,,0.00,,2013-02-15 07:21:00,
2013-02-15 01:31:00,26.0,20.0,30.38,NW,309,4.0,11.0,77,0.00,,,0.00,,2013-02-15 07:31:00,
2013-02-15 01:41:00,26.0,20.0,30.38,NW,309,4.0,11.0,77,0.00,,,0.00,,2013-02-15 07:41:00,
2013-02-15 01:52:00,26.0,20.0,30.38,NW,326,8.0,11.0,78,0.00,,,0.00,,2013-02-15 07:52:00,
2013-02-15 02:01:00,26.0,20.0,30.39,NNW,347,5.0,12.0,79,0.00,,,0.00,,2013-02-15 08:01:00,
2013-02-15 02:11:00,26.0,20.0,30.39,NNW,347,5.0,12.0,79,0.00,,,0.00,,2013-02-15 08:11:00,
2013-02-15 02:21:00,25.0,20.0,30.39,NNW,335,8.0,13.0,80,0.00,,,0.00,,2013-02-15 08:21:00,
2013-02-15 02:31:00,25.0,20.0,30.40,East,89,5.0,11.0,80,0.00,,,0.00,,2013-02-15 08:31:00,
2013-02-15 02:41:00,25.0,20.0,30.40,East,89,5.0,11.0,80,0.00,,,0.00,,2013-02-15 08:41:00,
2013-02-15 02:53:00,24.0,19.0,30.40,NW,318,4.0,10.0,81,0.00,,,0.00,,2013-02-15 08:53:00,
2013-02-15 03:01:00,24.0,19.0,30.40,NW,313,13.0,13.0,81,0.00,,,0.00,,2013-02-15 09:01:00,
2013-02-15 03:12:00,24.0,19.0,30.40,NW,313,13.0,13.0,81,0.00,,,0.00,,2013-02-15 09:12:00,
2013-02-15 03:21:00,24.0,18.0,30.40,WNW,303,5.0,13.0,79,0.00,,,0.00,,2013-02-15 09:21:00,
2013-02-15 03:32:00,24.0,18.0,30.40,WNW,303,5.0,13.0,79,0.00,,,0.00,,2013-02-15 09:32:00,
2013-02-15 03:41:00,24.0,18.0,30.40,WNW,303,5.0,13.0,79,0.00,,,0.00,,2013-02-15 09:41:00,
2013-02-15 03:52:00,23.0,17.0,30.40,NNW,337,6.0,11.0,79,0.00,,,0.00,,2013-02-15 09:52:00,
2013-02-15 04:01:00,23.0,18.0,30.40,NW,323,3.0,9.0,80,0.00,,,0.00,,2013-02-15 10:01:00,
2013-02-15 04:11:00,23.0,18.0,30.40,NW,323,3.0,9.0,80,0.00,,,0.00,,2013-02-15 10:11:00,
2013-02-15 04:21:00,22.0,17.0,30.41,NW,321,2.0,8.0,82,0.00,,,0.00,,2013-02-15 10:21:00,
2013-02-15 04:31:00,22.0,18.0,30.41,NW,318,2.0,8.0,83,0.00,,,0.00,,2013-02-15 10:31:00,
2013-02-15 04:41:00,22.0,18.0,30.41,NW,318,2.0,8.0,83,0.00,,,0.00,,2013-02-15 10:41:00,
2013-02-15 04:52:00,22.0,18.0,30.42,NW,308,2.0,6.0,83,0.00,,,0.00,,2013-02-15 10:52:00,
2013-02-15 05:01:00,21.0,17.0,30.42,NW,325,2.0,5.0,83,0.00,,,0.00,,2013-02-15 11:01:00,
2013-02-15 05:11:00,21.0,17.0,30.42,NW,325,2.0,5.0,83,0.00,,,0.00,,2013-02-15 11:11:00,
2013-02-15 05:22:00,21.0,17.0,30.42,NW,325,2.0,2.0,83,0.00,,,0.00,,2013-02-15 11:22:00,
2013-02-15 05:31:00,21.0,17.0,30.42,NW,325,2.0,2.0,83,0.00,,,0.00,,2013-02-15 11:31:00,
2013-02-15 05:42:00,21.0,17.0,30.42,NW,325,2.0,2.0,83,0.00,,,0.00,,2013-02-15 11:42:00,
2013-02-15 05:52:00,21.0,17.0,30.42,NW,325,2.0,2.0,83,0.00,,,0.00,,2013-02-15 11:52:00,
2013-02-15 06:01:00,21.0,17.0,30.42,NW,325,2.0,2.0,83,0.00,,,0.00,,2013-02-15 12:01:00,
2013-02-15 06:11:00,21.0,17.0,30.42,NW,325,2.0,2.0,83,0.00,,,0.00,,2013-02-15 12:11:00,
2013-02-15 06:21:00,21.0,17.0,30.43,NW,325,2.0,2.0,83,0.00,,,0.00,,2013-02-15 12:21:00,
2013-02-15 06:32:00,21.0,17.0,30.43,NW,325,2.0,2.0,83,0.00,,,0.00,,2013-02-15 12:32:00,
2013-02-15 06:42:00,21.0,17.0,30.43,NW,325,2.0,2.0,83,0.00,,,0.00,,2013-02-15 12:42:00,
2013-02-15 06:52:00,21.0,17.0,30.43,NW,325,2.0,2.0,83,0.00,,,0.00,,2013-02-15 12:52:00,
2013-02-15 07:02:00,21.0,17.0,30.43,NW,325,2.0,2.0,83,0.00,,,0.00,,2013-02-15 13:02:00,
2013-02-15 07:11:00,21.0,17.0,30.43,NW,325,2.0,2.0,83,0.00,,,0.00,,2013-02-15 13:11:00,
2013-02-15 07:21:00,21.0,17.0,30.43,NW,325,2.0,2.0,83,0.00,,,0.00,,2013-02-15 13:21:00,
2013-02-15 07:32:00,21.0,17.0,30.44,NW,325,2.0,2.0,83,0.00,,,0.00,,2013-02-15 13:32:00,
2013-02-15 07:41:00,21.0,17.0,30.44,NW,325,2.0,2.0,83,0.00,,,0.00,,2013-02-15 13:41:00,
2013-02-15 07:52:00,21.0,17.0,30.44,NW,325,2.0,2.0,83,0.00,,,0.00,,2013-02-15 13:52:00,
2013-02-15 08:01:00,21.0,17.0,30.45,NW,325,2.0,2.0,83,0.00,,,0.00,,2013-02-15 14:01:00,
2013-02-15 08:11:00,21.0,17.0,30.45,NW,325,2.0,2.0,83,0.00,,,0.00,,2013-02-15 14:11:00,
2013-02-15 08:21:00,21.0,17.0,30.44,NW,325,2.0,2.0,83,0.00,,,0.00,,2013-02-15 14:21:00,
2013-02-15 08:32:00,24.0,19.0,30.45,WNW,295,0.0,2.0,80,0.00,,,0.00,,2013-02-15 14:32:00,
2013-02-15 08:41:00,24.0,19.0,30.45,WNW,295,0.0,2.0,80,0.00,,,0.00,,2013-02-15 14:41:00,
2013-02-15 08:52:00,25.0,19.0,30.45,NW,309,3.0,7.0,79,0.00,,,0.00,,2013-02-15 14:52:00,
2013-02-15 09:01:00,26.0,20.0,30.46,NNW,334,0.0,4.0,78,0.00,,,0.00,,2013-02-15 15:01:00,
2013-02-15 09:11:00,26.0,20.0,30.46,NNW,334,0.0,4.0,78,0.00,,,0.00,,2013-02-15 15:11:00,
2013-02-15 09:21:00,27.0,20.0,30.45,NNW,340,3.0,8.0,76,0.00,,,0.00,,2013-02-15 15:21:00,
2013-02-15 09:32:00,27.0,20.0,30.45,NW,307,6.0,8.0,73,0.00,,,0.00,,2013-02-15 15:32:00,
2013-02-15 09:42:00,28.0,20.0,30.46,WNW,290,1.0,8.0,71,0.00,,,0.00,,2013-02-15 15:42:00,
2013-02-15 09:52:00,28.0,20.0,30.46,WNW,290,1.0,8.0,71,0.00,,,0.00,,2013-02-15 15:52:00,
2013-02-15 10:01:00,28.0,20.0,30.46,WNW,301,0.0,7.0,71,0.00,,,0.00,,2013-02-15 16:01:00,
2013-02-15 10:11:00,28.0,20.0,30.46,WNW,301,0.0,7.0,71,0.00,,,0.00,,2013-02-15 16:11:00,
2013-02-15 10:22:00,29.0,20.0,30.45,NW,311,4.0,6.0,69,0.00,,,0.00,,2013-02-15 16:22:00,
2013-02-15 10:32:00,30.0,20.0,30.45,NE,36,4.0,7.0,67,0.00,,,0.00,,2013-02-15 16:32:00,
2013-02-15 10:42:00,30.0,20.0,30.45,NE,36,4.0,7.0,67,0.00,,,0.00,,2013-02-15 16:42:00,
2013-02-15 10:52:00,30.0,20.0,30.45,NW,304,0.0,5.0,65,0.00,,,0.00,,2013-02-15 16:52:00,
2013-02-15 11:01:00,31.0,20.0,30.44,NNW,342,4.0,6.0,63,0.00,,,0.00,,2013-02-15 17:01:00,
2013-02-15 11:11:00,32.0,20.0,30.43,SSW,207,0.0,6.0,61,0.00,,,0.00,,2013-02-15 17:11:00,
2013-02-15 11:21:00,32.0,20.0,30.43,SSW,207,0.0,6.0,61,0.00,,,0.00,,2013-02-15 17:21:00,
2013-02-15 11:32:00,34.0,20.0,30.44,ENE,57,1.0,8.0,57,0.00,,,0.00,,2013-02-15 17:32:00,
2013-02-15 11:41:00,34.0,20.0,30.44,ENE,57,1.0,8.0,57,0.00,,,0.00,,2013-02-15 17:41:00,
2013-02-15 11:52:00,34.0,19.0,30.44,NW,313,4.0,7.0,54,0.00,,,0.00,,2013-02-15 17:52:00,
2013-02-15 12:01:00,34.0,18.0,30.43,ENE,63,2.0,6.0,52,0.00,,,0.00,,2013-02-15 18:01:00,
2013-02-15 12:11:00,34.0,18.0,30.43,ENE,63,2.0,6.0,52,0.00,,,0.00,,2013-02-15 18:11:00,
2013-02-15 12:21:00,35.0,19.0,30.43,NW,311,4.0,6.0,52,0.00,,,0.00,,2013-02-15 18:21:00,
2013-02-15 12:31:00,35.0,19.0,30.42,North,8,1.0,8.0,51,0.00,,,0.00,,2013-02-15 18:31:00,
2013-02-15 12:41:00,35.0,19.0,30.42,North,8,1.0,8.0,51,0.00,,,0.00,,2013-02-15 18:41:00,
2013-02-15 12:52:00,35.0,18.0,30.42,NW,304,0.0,10.0,49,0.00,,,0.00,,2013-02-15 18:52:00,
2013-02-15 13:01:00,36.0,18.0,30.41,ESE,118,0.0,6.0,48,0.00,,,0.00,,2013-02-15 19:01:00,
2013-02-15 13:11:00,36.0,18.0,30.41,ESE,118,0.0,6.0,48,0.00,,,0.00,,2013-02-15 19:11:00,
2013-02-15 13:22:00,36.0,18.0,30.40,WNW,293,0.0,7.0,48,0.00,,,0.00,,2013-02-15 19:22:00,
2013-02-15 13:32:00,38.0,19.0,30.40,NE,47,3.0,8.0,46,0.00,,,0.00,,2013-02-15 19:32:00,
2013-02-15 13:41:00,38.0,19.0,30.40,NE,47,3.0,8.0,46,0.00,,,0.00,,2013-02-15 19:41:00,
2013-02-15 13:52:00,38.0,18.0,30.39,NW,312,4.0,9.0,44,0.00,,,0.00,,2013-02-15 19:52:00,
2013-02-15 14:01:00,37.0,18.0,30.39,NW,312,1.0,10.0,45,0.00,,,0.00,,2013-02-15 20:01:00,
2013-02-15 14:11:00,37.0,18.0,30.39,NW,312,1.0,10.0,45,0.00,,,0.00,,2013-02-15 20:11:00,
2013-02-15 14:21:00,38.0,18.0,30.37,NW,312,0.0,7.0,44,0.00,,,0.00,,2013-02-15 20:21:00,
2013-02-15 14:32:00,39.0,18.0,30.37,SW,222,3.0,7.0,43,0.00,,,0.00,,2013-02-15 20:32:00,
2013-02-15 14:42:00,39.0,18.0,30.37,SW,222,3.0,7.0,43,0.00,,,0.00,,2013-02-15 20:42:00,
2013-02-15 14:52:00,38.0,18.0,30.37,WNW,295,3.0,8.0,44,0.00,,,0.00,,2013-02-15 20:52:00,
2013-02-15 15:01:00,38.0,20.0,30.37,NW,310,7.0,9.0,48,0.00,,,0.00,,2013-02-15 21:01:00,
2013-02-15 15:11:00,38.0,20.0,30.37,NW,310,7.0,9.0,48,0.00,,,0.00,,2013-02-15 21:11:00,
2013-02-15 15:21:00,39.0,20.0,30.35,ENE,63,2.0,10.0,47,0.00,,,0.00,,2013-02-15 21:21:00,
2013-02-15 15:31:00,40.0,21.0,30.35,SW,225,0.0,3.0,46,0.00,,,0.00,,2013-02-15 21:31:00,
2013-02-15 15:42:00,40.0,21.0,30.35,SW,225,0.0,3.0,46,0.00,,,0.00,,2013-02-15 21:42:00,
2013-02-15 15:52:00,41.0,20.0,30.34,NNW,343,1.0,14.0,43,0.00,,,0.00,,2013-02-15 21:52:00,
2013-02-15 16:02:00,42.0,21.0,30.35,WNW,297,0.0,9.0,42,0.00,,,0.00,,2013-02-15 22:02:00,
2013-02-15 16:11:00,42.0,20.0,30.34,WNW,288,5.0,6.0,41,0.00,,,0.00,,2013-02-15 22:11:00,
2013-02-15 16:21:00,42.0,20.0,30.34,WNW,288,5.0,6.0,41,0.00,,,0.00,,2013-02-15 22:21:00,
2013-02-15 16:31:00,41.0,20.0,30.33,NW,316,7.0,11.0,42,0.00,,,0.00,,2013-02-15 22:31:00,
2013-02-15 16:41:00,41.0,20.0,30.33,NW,316,7.0,11.0,42,0.00,,,0.00,,2013-02-15 22:41:00,
2013-02-15 16:52:00,41.0,20.0,30.33,WSW,239,0.0,7.0,43,0.00,,,0.00,,2013-02-15 22:52:00,
2013-02-15 17:02:00,41.0,20.0,30.33,NW,314,6.0,9.0,42,0.00,,,0.00,,2013-02-15 23:02:00,
2013-02-15 17:11:00,41.0,20.0,30.33,NW,314,6.0,9.0,42,0.00,,,0.00,,2013-02-15 23:11:00,
2013-02-15 17:21:00,40.0,17.0,30.32,NW,316,2.0,7.0,39,0.00,,,0.00,,2013-02-15 23:21:00,
2013-02-15 17:31:00,40.0,17.0,30.32,NW,311,3.0,7.0,39,0.00,,,0.00,,2013-02-15 23:31:00,
2013-02-15 17:42:00,40.0,17.0,30.32,NW,311,3.0,7.0,39,0.00,,,0.00,,2013-02-15 23:42:00,
2013-02-15 17:52:00,40.0,18.0,30.31,WNW,293,2.0,6.0,40,0.00,,,0.00,,2013-02-15 23:52:00,
2013-02-15 18:02:00,39.0,17.0,30.32,NW,316,3.0,7.0,40,0.00,,,0.00,,2013-02-16 00:02:00,
2013-02-15 18:11:00,39.0,17.0,30.32,NW,316,3.0,7.0,40,0.00,,,0.00,,2013-02-16 00:11:00,
2013-02-15 18:21:00,39.0,17.0,30.32,NW,309,2.0,5.0,41,0.00,,,0.00,,2013-02-16 00:21:00,
2013-02-15 18:32:00,39.0,16.0,30.33,WNW,298,9.0,15.0,39,0.00,,,0.00,,2013-02-16 00:32:00,
2013-02-15 18:41:00,39.0,16.0,30.33,WNW,298,9.0,15.0,39,0.00,,,0.00,,2013-02-16 00:41:00,
2013-02-15 18:52:00,39.0,19.0,30.34,NW,304,7.0,16.0,44,0.00,,,0.00,,2013-02-16 00:52:00,
2013-02-15 19:02:00,38.0,19.0,30.34,WNW,293,7.0,13.0,46,0.00,,,0.00,,2013-02-16 01:02:00,
2013-02-15 19:11:00,38.0,19.0,30.34,WNW,293,7.0,13.0,46,0.00,,,0.00,,2013-02-16 01:11:00,
2013-02-15 19:21:00,38.0,18.0,30.34,NW,316,7.0,16.0,43,0.00,,,0.00,,2013-02-16 01:21:00,
2013-02-15 19:31:00,37.0,17.0,30.35,NNE,27,10.0,17.0,43,0.00,,,0.00,,2013-02-16 01:31:00,
2013-02-15 19:41:00,37.0,17.0,30.35,NNE,27,10.0,17.0,43,0.00,,,0.00,,2013-02-16 01:41:00,
2013-02-15 19:52:00,35.0,14.0,30.36,NW,311,4.0,17.0,41,0.00,,,0.00,,2013-02-16 01:52:00,
2013-02-15 20:01:00,34.0,14.0,30.36,WNW,283,7.0,14.0,44,0.00,,,0.00,,2013-02-16 02:01:00,
2013-02-15 20:11:00,34.0,14.0,30.36,WNW,283,7.0,14.0,44,0.00,,,0.00,,2013-02-16 02:11:00,
2013-02-15 20:21:00,34.0,15.0,30.37,NW,304,5.0,11.0,45,0.00,,,0.00,,2013-02-16 02:21:00,
2013-02-15 20:31:00,33.0,15.0,30.38,NW,316,4.0,13.0,46,0.00,,,0.00,,2013-02-16 02:31:00,
2013-02-15 20:42:00,33.0,15.0,30.38,NW,316,4.0,13.0,46,0.00,,,0.00,,2013-02-16 02:42:00,
2013-02-15 20:52:00,33.0,15.0,30.38,NW,321,3.0,13.0,46,0.00,,,0.00,,2013-02-16 02:52:00,
2013-02-15 21:01:00,32.0,15.0,30.38,NW,316,5.0,9.0,48,0.00,,,0.00,,2013-02-16 03:01:00,
2013-02-15 21:11:00,32.0,15.0,30.38,NW,316,5.0,9.0,48,0.00,,,0.00,,2013-02-16 03:11:00,
2013-02-15 21:21:00,31.0,15.0,30.40,NW,316,2.0,9.0,50,0.00,,,0.00,,2013-02-16 03:21:00,
2013-02-15 21:31:00,30.0,15.0,30.40,NW,323,2.0,10.0,52,0.00,,,0.00,,2013-02-16 03:31:00,
2013-02-15 21:41:00,30.0,15.0,30.40,NW,323,2.0,10.0,52,0.00,,,0.00,,2013-02-16 03:41:00,
2013-02-15 21:52:00,29.0,15.0,30.40,NW,321,2.0,7.0,55,0.00,,,0.00,,2013-02-16 03:52:00,
2013-02-15 22:01:00,29.0,15.0,30.40,NE,36,3.0,10.0,56,0.00,,,0.00,,2013-02-16 04:01:00,
2013-02-15 22:11:00,28.0,15.0,30.41,NW,311,0.0,8.0,58,0.00,,,0.00,,2013-02-16 04:11:00,
2013-02-15 22:21:00,28.0,15.0,30.41,NW,311,0.0,8.0,58,0.00,,,0.00,,2013-02-16 04:21:00,
2013-02-15 22:32:00,28.0,16.0,30.41,North,6,3.0,5.0,60,0.00,,,0.00,,2013-02-16 04:32:00,
2013-02-15 22:41:00,28.0,16.0,30.41,North,6,3.0,5.0,60,0.00,,,0.00,,2013-02-16 04:41:00,
2013-02-15 22:52:00,27.0,16.0,30.40,ENE,62,1.0,5.0,62,0.00,,,0.00,,2013-02-16 04:52:00,
2013-02-15 23:01:00,27.0,16.0,30.40,West,266,1.0,8.0,64,0.00,,,0.00,,2013-02-16 05:01:00,
2013-02-15 23:12:00,27.0,16.0,30.40,West,266,1.0,8.0,64,0.00,,,0.00,,2013-02-16 05:12:00,
2013-02-15 23:22:00,27.0,17.0,30.41,NW,322,1.0,8.0,65,0.00,,,0.00,,2013-02-16 05:22:00,
2013-02-15 23:31:00,27.0,18.0,30.41,North,360,3.0,8.0,67,0.00,,,0.00,,2013-02-16 05:31:00,
2013-02-15 23:42:00,27.0,18.0,30.41,North,360,3.0,8.0,67,0.00,,,0.00,,2013-02-16 05:42:00,
2013-02-15 23:52:00,26.0,17.0,30.41,NW,308,0.0,5.0,69,0.00,,,0.00,,2013-02-16 05:52:00,